Weather WX

World > North America > United States > New York

Broome County, New York Regional Weather

Lat: 42.20N, Lon: 75.75W
Wx Zone: NYZ056
Warning FLW WEATHER ALERT - (More Info. Click Here) Warning
Feedback

Broome County, NY Regional Weather

Expires:201906260800;;092287
ASUS41 KPHI 260712
RWRPHI

REGIONAL WEATHER ROUNDUP
NATIONAL WEATHER SERVICE MOUNT HOLLY NJ
300 AM EDT WED JUN 26 2019

NOTE:  "FAIR" INDICATES FEW OR NO CLOUDS BELOW 12,000 FEET WITH NO
SIGNIFICANT WEATHER AND/OR OBSTRUCTIONS TO VISIBILITY.

 * = STATION DOES NOT REPORT PRECIPITATION (E.G. RAIN, SNOW, ETC.) 
        OR FOG.


PAZ001-021-NYZ056-072-MDZ011-DCZ001-260800-
OTHER NEARBY LOCATIONS
  
CITY           SKY/WX    TMP DP  RH WIND       PRES   REMARKS
HARRISBURG     FAIR      70  61  73 NW6       29.99S                  
STATE COLLEGE  FAIR      61  57  88 CALM      30.04R                  
WILLIAMSPORT   FAIR      61  57  87 NW3       30.00S                  
BINGHAMTON     FAIR      59  55  87 CALM      30.02R                  
NEW YORK CITY  FAIR      73  70  90 CALM      29.96R FOG              
BALTIMORE      FAIR      70  61  73 W7        29.99R                  
WASHINGTON DC  MOCLDY    77  59  53 NW13      30.00R                  

$$
  

SKY/WX - Weather  TMP - Temperature  DP - Dew Point  RH - Relative Humidity
WIND - Wind Direction/Speed PRES - Barometric Pressure VSB - Visibility
WCI - Wind Chill Index E13G22 Wind - East Wind 13 mph/Gusts of 22 mph